Regional Weather Roundup
Issued by NWS

Home | Current Version | Previous Version | Graphics & Text | Print | Product List | Glossary On
Versions: 1 2 3 4 5 6 7 8 9 10 11 12 13 14 15 16 17 18 19 20 21 22 23 24 25 26 27 28 29 30 31 32 33 34 35 36 37 38 39 40 41 42 43 44 45 46 47 48 49 50
123
ASUS43 KMKX 290200
RWRWI

WISCONSIN REGIONAL WEATHER ROUNDUP
NATIONAL WEATHER SERVICE MILWAUKEE/SULLIVAN WI
900 PM CDT FRI APR 28 2017

NOTE: "FAIR" INDICATES FEW OR NO CLOUDS BELOW 12,000 FEET WITH NO
SIGNIFICANT WEATHER AND/OR OBSTRUCTIONS TO VISIBILITY.

WIZ001-002-006>008-014>016-023>028-290300-
NORTHWEST WISCONSIN

CITY           SKY/WX    TMP DP  RH WIND       PRES   REMARKS
SUPERIOR ARPT  CLOUDY    43  26  52 N6        30.06R
ASHLAND        CLOUDY    38  29  70 NE8       30.08R WCI  32
HAYWARD        MOCLDY    42  27  55 N5        30.03R
SIREN          PTCLDY    43  26  49 CALM      30.03R
CUMBERLAND     CLOUDY    39  32  75 CALM      30.02R
RICE LAKE      CLOUDY    44  30  58 CALM      30.03R
CHETEK         CLOUDY    41  32  70 CALM      30.03R
LADYSMITH      MOCLDY    43  31  62 N3        30.03R
EAU CLAIRE     NOT AVBL
MENOMONIE      CLOUDY    44  31  59 N3        30.03R
NEW RICHMOND   PTCLDY    42  30  62 W3        30.04R
OSCEOLA        PTCLDY    45  31  56 SW3       30.06R
$$

WIZ003>005-009-010-017-018-290300-
NORTH CENTRAL WISCONSIN

CITY           SKY/WX    TMP DP  RH WIND       PRES   REMARKS
MANITOWISH WTR CLOUDY    35  29  76 N8G16     30.01R WCI  29
ARBOR VITAE    PTCLDY    37  31  81 CALM      30.00R
WOODRUFF       PTCLDY    37  31  81 CALM      30.00R
RHINELANDER    MOCLDY    39  28  64 CALM      30.01R
EAGLE RIVER    PTCLDY    33  27  79 CALM      30.01R
LAND O LAKES   PTCLDY    35  28  78 N9        30.02R WCI  27
PHILLIPS       CLOUDY    37  31  77 CALM      30.00R
TOMAHAWK       PTCLDY    35  29  79 CALM      30.01R
MEDFORD        CLOUDY    40  28  63 N3        30.00R
MERRILL        PTCLDY    39  29  69 NE5       30.01R
$$

WIZ029-030-035-036-043>047-290300-
CENTRAL WISCONSIN

CITY           SKY/WX    TMP DP  RH WIND       PRES   REMARKS
WAUSAU         CLOUDY    43  30  60 N3        30.01R
MOSINEE        MOCLDY    43  34  70 N3        30.02R
MARSHFIELD     CLOUDY    43  32  65 N6        30.00R
STEVENS POINT  MOCLDY    43  31  63 CALM      30.01R
WAUPACA        CLOUDY    48  33  55 CALM      30.01R
WAUTOMA        CLOUDY    45  42  89 NW3       30.01
WISC RAPIDS    MOCLDY    45  33  63 N5        30.02R
CAMP DOUGLAS   NOT AVBL
$$

WIZ011>013-019>022-031-037>040-048>050-290300-
NORTHEAST WISCONSIN

CITY           SKY/WX    TMP DP  RH WIND       PRES   REMARKS
ANTIGO         CLOUDY    39  30  70 N8        30.01R WCI  34
SHAWANO        CLOUDY    47  33  58 N3        30.00R
OCONTO         NOT AVBL
STURGEON BAY   CLOUDY    42  37  82 CALM      30.04R
GREEN BAY      CLOUDY    48  38  68 NW5       30.01R
MANITOWOC      NOT AVBL
APPLETON       MOCLDY    46  30  53 NW3       29.99R
CLINTONVILLE   CLOUDY    46  30  53 N5        30.00R
OSHKOSH        CLOUDY    46  39  76 NW3       30.00R
$$

WIZ032>034-041-042-053>061-290300-
SOUTHWEST WISCONSIN

CITY           SKY/WX    TMP DP  RH WIND       PRES   REMARKS
LA CROSSE      CLOUDY    47  33  58 NW3       30.04R
SPARTA         CLOUDY    45  35  69 CALM      30.02R
VIROQUA        CLOUDY    42  39  89 N3        29.99R
BOSCOBEL       CLOUDY    46  40  79 VRB3      30.02R
PRAIRIE DU CHI CLOUDY    45  37  75 CALM      30.00R
PLATTEVILLE    CLOUDY    44  44  98 NE10      29.97R
$$

WIZ056-057-062-063-064-067-068-290300-
SOUTH CENTRAL WISCONSIN

CITY           SKY/WX    TMP DP  RH WIND       PRES   REMARKS
REEDSBURG      CLOUDY    43  40  89 CALM      29.98R
BARABOO/DELLS  CLOUDY    43  38  84 NE5       29.98R
LONE ROCK      NOT AVBL
MINERAL POINT  CLOUDY    45  43  93 NE7       29.96S
MADISON        CLOUDY    45  41  86 NE6       29.98R
MIDDLETON      CLOUDY    46  42  84 N6        29.98R
WATERTOWN      DRIZZLE   45  45 100 N7        29.98R
MONROE         CLOUDY    43  43 100 N10       29.95R
JANESVILLE     LGT RAIN  46  46 100 N8        29.95R
$$

WIZ051-052-058>065-066-070>072-290300-
SOUTHEAST WISCONSIN

CITY           SKY/WX    TMP DP  RH WIND       PRES   REMARKS
MILWAUKEE      CLOUDY    46  40  79 N8        29.97R
WAUKESHA       CLOUDY    45  43  93 N7        29.98R FOG
MILWAUKEE/TIMM DRIZZLE   43  39  87 N8        29.99R
RACINE         CLOUDY    44  38  79 N9        29.98R
KENOSHA        CLOUDY    47  40  76 N8        29.96R
FOND DU LAC    LGT RAIN  47  40  76 N5        30.01R
SHEBOYGAN      LGT RAIN  42  40  92 E3        30.02R
WEST BEND      RAIN      43  43 100 CALM      30.00R
JUNEAU         LGT RAIN  44  42  92 CALM      30.00R
$$

LSZ147-162-290300-
LAKE SUPERIOR

STATION/POSITION TIME  TEMP    WIND        PRES    WAVE
                       AIR SEA DIR/SP/G            HT/PER
                 (UTC) (F)     (DEG/KT/KT) (MB)    (FT/S)
DEVILS ISLAND    0100   38      10/ 13/ 15 1017.6R
PORT WING        0120   40      60/  4/ 21 1017.6R
SAXON HARBOR     0030   39      80/  9/ 12 1016.3R
$$

LMZ867-665-643>646-290300-
LAKE MICHIGAN

STATION/POSITION TIME  TEMP    WIND        PRES    WAVE
                       AIR SEA DIR/SP/G            HT/PER
                 (UTC) (F)     (DEG/KT/KT) (MB)    (FT/S)
CHAMBERS ISLAND  0040   43     330/ 10/ 12 1014.2R
N MID LAKE BUOY  0050   38 37  170/  2/  2 1016.3R   2/ 4
NORTHPORT PIER   0140   40      CALM  /  3 1016.3R
SISTER BAY       0006   41     150/  6/  7   N/A
KEWAUNEE LAKESHO 0130   42     180/  7/  7 1015.3R
SHEBOYGAN LAKESH 0100   40     130/  2/  2 1015.8R
PORT WASHINGTON  0120   42     330/  1/ 12 1016.6R
MILWAUKEE LAKESH 0130   44     320/  8/ 11   N/A
S MID LAKE BUOY  0050   42 42   30/  8/ 10 1013.5R   0
KENOSHA   LAKESH 0100   45      20/  8/ 11 1013.5
$$

TC  - TEMPERATURE IN CELSIUS
VSB - VISIBILITY IN STATUTE MILES
WCI - WIND CHILL INDEX
HX  - HEAT INDEX





USA.gov is the U.S. government's official web portal to all federal, state and local government web resources and services.